DW5656 Weather Reports


time (UTC)temp
C
wind
direction
speed
KPH
gust
KPH
rain 1hr
cm
rain 24hr
cm
rain mn
cm
humidity
%
barometer
mb
20260504023545 16 0 0.0 0.0 0.00 0.00 0.00 82 1013.6
20260504022624 16 0 0.0 0.0 0.00 0.00 0.00 82 1013.6
20260504021724 16 0 0.0 0.0 0.00 0.00 0.00 82 1013.6
20260504020824 16 0 0.0 0.0 0.00 0.00 0.00 81 1013.6
20260504015945 16 0 0.0 0.0 0.00 0.00 0.00 81 1013.7
20260504015024 15 0 0.0 0.0 0.00 0.00 0.00 81 1013.7
20260504014125 16 0 0.0 0.0 0.00 0.00 0.00 81 1013.8
20260504013224 16 0 0.0 0.0 0.00 0.00 0.00 81 1013.8
20260504012324 16 0 0.0 0.0 0.00 0.00 0.00 80 1013.9
20260504011445 16 0 0.0 0.0 0.00 0.00 0.00 80 1013.8
20260504010525 16 0 0.0 0.0 0.00 0.00 0.00 80 1013.9
20260504005645 16 214 0.0 1.6 0.00 0.00 0.00 80 1014.0
20260504004724 16 232 0.0 6.4 0.00 0.00 0.00 79 1014.0
20260504003845 16 221 1.6 3.2 0.00 0.00 0.00 79 1014.0
20260504002924 16 200 1.6 8.0 0.00 0.00 0.00 79 1014.1
20260504002045 16 212 3.2 14.5 0.00 0.00 0.00 79 1014.3
20260504001124 17 221 4.8 9.7 0.00 0.00 0.00 80 1014.3
20260504000226 17 232 4.8 12.9 0.00 0.00 0.00 80 1014.4
20260503235324 17 229 4.8 12.9 0.00 0.00 0.00 79 1014.5
20260503234424 17 232 3.2 9.7 0.00 0.00 0.00 79 1014.5
20260503233524 17 252 3.2 9.7 0.00 0.00 0.00 79 1014.5
20260503232624 17 218 3.2 8.0 0.00 0.00 0.00 78 1014.6
20260503231745 17 218 3.2 8.0 0.00 0.00 0.00 78 1014.7
20260503230845 17 226 3.2 9.7 0.00 0.00 0.00 78 1014.7
20260503225924 17 227 4.8 11.3 0.00 0.00 0.00 77 1014.7
20260503225024 17 218 3.2 11.3 0.00 0.00 0.00 77 1014.8
20260503224125 17 213 3.2 9.7 0.00 0.00 0.00 76 1014.9
20260503223223 17 217 3.2 14.5 0.00 0.00 0.00 76 1014.8
20260503222323 17 224 3.2 9.7 0.00 0.00 0.00 76 1014.8
20260503221423 17 226 3.2 11.3 0.00 0.00 0.00 76 1014.7
20260503220545 17 238 4.8 16.1 0.00 0.00 0.00 76 1014.8
20260503215623 17 237 3.2 12.9 0.00 0.00 0.00 75 1014.8
20260503214723 17 233 3.2 9.7 0.00 0.00 0.00 74 1014.8
20260503213844 17 228 3.2 9.7 0.00 0.00 0.00 74 1014.7
20260503212944 17 225 3.2 9.7 0.00 0.00 0.00 74 1014.7
20260503212023 17 245 3.2 11.3 0.00 0.00 0.00 73 1014.7
20260503211123 17 247 4.8 11.3 0.00 0.00 0.00 73 1014.7
20260503210224 17 256 6.4 9.7 0.00 0.00 0.00 73 1014.6
20260503205323 17 265 6.4 17.7 0.00 0.00 0.00 73 1014.5
20260503204424 17 247 6.4 12.9 0.00 0.00 0.00 72 1014.4
20260503203544 17 245 6.4 14.5 0.00 0.00 0.00 72 1014.3
20260503202644 17 266 6.4 14.5 0.00 0.00 0.00 72 1014.2
20260503201723 17 261 9.7 17.7 0.00 0.00 0.00 71 1014.1
20260503200823 18 267 9.7 24.1 0.00 0.00 0.00 71 1013.9
20260503195923 18 268 11.3 24.1 0.00 0.00 0.00 70 1013.7
20260503195023 18 266 9.7 24.1 0.00 0.00 0.00 69 1013.6
20260503194124 18 259 12.9 24.1 0.00 0.00 0.00 68 1013.4
20260503193223 18 264 11.3 22.5 0.00 0.00 0.00 67 1013.4
20260503192323 18 261 11.3 22.5 0.00 0.00 0.00 66 1013.4
20260503191423 18 268 9.7 24.1 0.00 0.00 0.00 65 1013.3
20260503190523 19 269 11.3 17.7 0.00 0.00 0.00 63 1013.3
20260503185623 19 262 12.9 24.1 0.00 0.00 0.00 63 1013.2
20260503184744 20 249 14.5 29.0 0.00 0.00 0.00 62 1013.2
20260503183823 20 243 12.9 27.4 0.00 0.00 0.00 60 1013.2
20260503182944 20 248 14.5 30.6 0.00 0.00 0.00 57 1013.1
20260503182023 20 246 14.5 25.7 0.00 0.00 0.00 58 1013.1
20260503181144 20 238 14.5 25.7 0.00 0.00 0.00 58 1013.1
20260503180223 21 237 14.5 25.7 0.00 0.00 0.00 60 1013.0
20260503175323 21 254 14.5 25.7 0.00 0.00 0.00 59 1012.9
20260503174423 21 264 14.5 25.7 0.00 0.00 0.00 58 1012.8
20260503173523 22 248 14.5 25.7 0.00 0.00 0.00 56 1012.9
20260503172623 22 251 12.9 24.1 0.00 0.00 0.00 56 1012.9
20260503171744 22 262 12.9 25.7 0.00 0.00 0.00 56 1012.8
20260503170844 22 258 12.9 25.7 0.00 0.00 0.00 55 1012.7
20260503150222 23 247 14.5 32.2 0.00 0.00 0.00 49 1013.0
20260503130522 23 250 9.7 27.4 0.00 0.00 0.00 51 1013.7
20260503090221 20 212 3.2 8.0 0.00 0.00 0.00 77 1015.1
20260503080821 19 324 0.0 1.6 0.00 0.00 0.00 81 1015.1
20260503072321 18 177 0.0 8.0 0.00 0.00 0.00 84 1014.9
20260503071422 17 0 0.0 0.0 0.00 0.00 0.00 86 1014.9
20260503070521 17 254 0.0 1.6 0.00 0.00 0.00 87 1014.9
20260503060221 17 0 0.0 0.0 0.00 0.00 0.00 87 1014.7
20260503054421 17 253 0.0 9.7 0.00 0.00 0.00 87 1014.6
20260503053521 17 257 0.0 4.8 0.00 0.00 0.00 87 1014.5
20260503052621 17 0 0.0 0.0 0.00 0.00 0.00 87 1014.3
20260503051721 17 0 0.0 0.0 0.00 0.00 0.00 87 1014.4
20260503050821 17 0 0.0 0.0 0.00 0.00 0.00 87 1014.4
20260503045921 17 196 0.0 6.4 0.00 0.00 0.00 87 1014.5
20260503045021 17 217 0.0 6.4 0.00 0.00 0.00 87 1014.4
20260503044121 17 247 0.0 6.4 0.00 0.00 0.00 86 1014.5
20260503043220 17 260 0.0 6.4 0.00 0.00 0.00 86 1014.4
20260503042321 17 0 0.0 0.0 0.00 0.00 0.00 86 1014.5
20260503041442 17 252 0.0 1.6 0.00 0.00 0.00 86 1014.5
20260503040541 17 0 0.0 0.0 0.00 0.00 0.00 86 1014.4
20260503035620 17 258 0.0 1.6 0.00 0.00 0.00 85 1014.6
20260503034720 17 243 0.0 3.2 0.00 0.00 0.00 85 1014.6
20260503033820 17 233 0.0 3.2 0.00 0.00 0.00 85 1014.7
20260503032920 17 0 0.0 0.0 0.00 0.00 0.00 85 1014.7
20260503032021 17 244 0.0 4.8 0.00 0.00 0.00 84 1014.6
20260503031120 17 251 0.0 4.8 0.00 0.00 0.00 84 1014.7
20260503030220 17 249 0.0 1.6 0.00 0.00 0.00 84 1014.9
20260503025320 17 245 0.0 3.2 0.00 0.00 0.00 84 1014.9
20260503024421 17 248 0.0 3.2 0.00 0.00 0.00 84 1014.8